Location: Unspecified
(0.0000°N, 0.0000°E)
Time: 02:19:43
(UTC+00:00)

SR - Pass Details

Date: 01 October 2020
Orbit: 581 x 874 km, 66.7° (Epoch: 25 October)

Event Time Altitude Azimuth Distance (km) Brightness Sun altitude
Rises 20:04:23 0° 311° (NW) 3,241 ? -33.7°
Reaches altitude 10° 20:07:18 10° 295° (WNW) 2,367 ? -34.4°
Maximum altitude 20:11:16 20° 249° (WSW) 1,806 ? -35.4°
Drops below altitude 10° 20:15:25 10° 202° (SSW) 2,480 ? -36.4°
Sets 20:18:35 0° 186° (S) 3,444 ? -37.2°
